TimeEDT,TemperatureF,Dew PointF,Humidity,Sea Level PressureIn,VisibilityMPH,Wind Direction,Wind SpeedMPH,Gust SpeedMPH,PrecipitationIn,Events,Conditions,WindDirDegrees,DateUTC
12:51 AM,57.0,54.0,89,30.12,10.0,Calm,Calm,-,N/A,,Clear,0,2013-09-07 04:51:00
1:51 AM,57.0,54.0,89,30.11,10.0,Calm,Calm,-,N/A,,Clear,0,2013-09-07 05:51:00
2:51 AM,55.0,53.1,93,30.10,10.0,Calm,Calm,-,N/A,,Clear,0,2013-09-07 06:51:00
3:51 AM,55.0,53.1,93,30.10,10.0,Calm,Calm,-,N/A,,Clear,0,2013-09-07 07:51:00
4:51 AM,53.1,51.1,93,30.09,4.0,Calm,Calm,-,N/A,,Clear,0,2013-09-07 08:51:00
5:51 AM,52.0,50.0,93,30.10,10.0,Calm,Calm,-,N/A,,Clear,0,2013-09-07 09:51:00
6:51 AM,52.0,50.0,93,30.10,6.0,Calm,Calm,-,N/A,,Clear,0,2013-09-07 10:51:00
7:51 AM,53.1,52.0,96,30.12,8.0,Calm,Calm,-,N/A,,Clear,0,2013-09-07 11:51:00
8:51 AM,57.9,55.9,93,30.11,10.0,Calm,Calm,-,N/A,,Clear,0,2013-09-07 12:51:00
9:51 AM,64.0,57.9,80,30.11,10.0,Calm,Calm,-,N/A,,Clear,0,2013-09-07 13:51:00
10:51 AM,70.0,57.9,65,30.11,10.0,Variable,3.5,-,N/A,,Clear,0,2013-09-07 14:51:00
11:51 AM,73.9,59.0,59,30.10,10.0,Variable,3.5,-,N/A,,Clear,0,2013-09-07 15:51:00
12:51 PM,78.1,59.0,52,30.08,10.0,Calm,Calm,-,N/A,,Clear,0,2013-09-07 16:51:00
1:51 PM,81.0,51.1,35,30.06,10.0,Calm,Calm,-,N/A,,Clear,0,2013-09-07 17:51:00
2:51 PM,82.0,55.9,41,30.04,10.0,Calm,Calm,-,N/A,,Clear,0,2013-09-07 18:51:00
3:51 PM,82.9,57.0,41,30.02,10.0,SSW,6.9,-,N/A,,Clear,210,2013-09-07 19:51:00
4:51 PM,82.9,55.9,39,30.00,10.0,Calm,Calm,-,N/A,,Clear,0,2013-09-07 20:51:00
5:51 PM,80.1,59.0,48,30.00,10.0,SW,3.5,-,N/A,,Clear,220,2013-09-07 21:51:00
6:51 PM,80.1,60.1,50,29.99,10.0,Calm,Calm,-,N/A,,Clear,0,2013-09-07 22:51:00
7:51 PM,73.9,64.0,71,30.00,10.0,ESE,3.5,-,N/A,,Clear,110,2013-09-07 23:51:00
8:51 PM,69.1,64.9,87,30.00,10.0,Calm,Calm,-,N/A,,Clear,0,2013-09-08 00:51:00
9:51 PM,68.0,64.0,87,29.99,10.0,Calm,Calm,-,N/A,,Clear,0,2013-09-08 01:51:00
10:51 PM,68.0,64.0,87,29.99,10.0,Calm,Calm,-,N/A,,Clear,0,2013-09-08 02:51:00
11:51 PM,66.0,63.0,90,29.98,10.0,Calm,Calm,-,N/A,,Clear,0,2013-09-08 03:51:00